CAPE
0 0 0 0 0 0 0 0 0 0 0 0 0 0 0 0 0 0 0 0 0 0 0 0 0 0 0 0 53 2 0 0 0 1 3 22 6 0 50 28 15 44 10 0 29
0 0 0 0 0 0 0 0 0 0 0 0 0 0 0 0 0 0 0 0 0 0 0 0 0 0 0 0 0 0 1 1 0 4 9 23 12 53 41 21 10 8 32 21 63
0 0 0 0 0 0 0 0 0 0 0 0 0 0 0 0 0 0 0 0 0 0 0 0 0 0 0 0 0 19 28 88 36 3 3 32 58 51 51 0 33 0 0 17 68
0 0 0 0 0 0 0 0 0 0 0 0 0 0 0 0 0 0 0 0 0 0 0 0 0 0 0 164 346 156 322 141 104 5 1 13 73 51 25 17 34 1 3 30 41
0 0 0 0 0 0 0 0 0 0 0 0 0 0 0 0 0 0 0 0 0 0 0 0 0 0 0 135 325 256 332 233 193 26 80 41 18 57 45 29 49 21 30 22 27
0 0 0 0 0 0 0 0 0 0 0 0 0 0 0 0 0 0 0 0 0 0 0 0 0 0 0 77 319 371 189 245 124 71 31 29 4 53 39 60 49 22 4 24 32
0 0 0 0 0 0 0 0 0 0 0 0 0 0 0 0 0 0 0 0 0 0 0 0 0 0 1 291 172 131 98 112 166 51 18 26 13 2 25 73 68 50 0 23 51
0 0 0 0 0 0 0 0 0 0 0 0 0 0 0 0 0 0 0 0 0 0 0 0 0 0 9 131 26 0 69 45 125 148 4 8 12 24 13 82 67 56 46 12 43
0 0 0 0 0 0 0 0 0 0 0 0 0 0 0 0 0 0 0 0 0 0 0 0 0 0 35 12 2 0 0 11 114 192 32 0 0 14 27 10 68 62 40 35 30
0 0 0 0 0 0 0 0 0 0 0 0 0 0 0 0 0 0 0 0 0 0 0 0 0 0 0 1 0 0 0 1 12 142 125 25 1 0 6 6 3 52 31 43 27
0 0 0 0 0 0 0 0 0 0 0 0 0 0 0 0 0 0 0 0 0 0 0 0 0 0 0 0 0 0 0 0 44 264 155 66 16 0 0 10 14 22 24 8 28
0 0 0 0 0 0 0 0 0 0 0 0 0 0 0 0 0 0 0 0 0 0 0 0 0 0 0 0 0 0 0 1 2 142 258 209 102 32 1 0 0 0 4 0 4
0 0 0 0 0 0 0 0 0 0 0 0 0 0 0 0 0 0 0 0 0 0 0 0 0 0 0 0 0 0 0 0 38 446 234 219 46 57 9 0 0 0 0 1 3
0 0 0 0 0 0 0 0 0 0 0 0 0 0 0 0 0 0 0 0 0 0 0 0 0 0 0 0 0 0 0 0 78 56 0 114 11 0 2 2 0 0 0 0 8
0 0 0 0 0 0 0 0 0 0 0 0 0 0 0 0 0 0 0 0 0 0 0 0 0 0 0 0 0 0 0 0 49 1 0 25 4 0 0 0 0 0 0 0 0
0 0 0 0 0 0 0 0 0 0 0 0 0 0 0 0 0 0 0 0 0 0 0 0 0 0 0 0 0 0 5 44 88 67 0 0 2 0 0 0 0 0 0 0 3
0 0 0 0 0 0 0 0 0 0 0 0 0 0 0 0 0 0 0 0 0 0 0 0 0 0 0 0 0 0 0 0 9 23 0 0 9 0 0 0 0 0 0 0 0
0 0 0 0 0 0 0 0 0 0 0 0 0 0 0 0 0 0 0 0 0 0 0 0 0 0 0 0 0 0 0 0 0 0 0 0 0 0 0 13 0 0 0 0 0
0 0 0 0 0 0 0 0 0 0 0 0 0 0 0 0 0 0 0 0 0 0 0 0 0 0 0 0 0 0 0 0 0 0 0 0 0 0 23 50 33 0 0 0 0
0 0 0 0 0 0 0 0 0 0 0 0 0 0 0 0 0 0 0 0 0 0 0 0 0 0 0 0 0 0 0 0 0 0 0 0 0 0 3 130 68 73 26 3 1
0 0 0 0 0 0 0 0 0 0 0 0 0 0 0 0 0 0 0 0 0 0 0 0 0 0 0 0 0 0 0 0 0 0 0 0 0 0 1 186 171 158 100 40 17
0 0 0 0 0 0 0 0 0 0 0 0 0 0 0 0 0 0 0 0 0 0 0 0 0 0 0 0 0 0 0 0 0 0 0 0 0 7 5 39 0 103 131 72 126
0 0 0 0 0 0 0 0 0 0 0 0 0 0 0 0 0 0 0 0 0 0 0 0 0 0 0 0 0 0 0 0 0 0 0 0 0 0 82 143 5 247 182 190 234
0 0 0 0 0 0 0 0 0 0 0 0 0 0 0 0 0 0 0 0 0 0 0 0 0 0 0 0 0 0 0 0 0 0 0 0 0 10 147 196 213 483 233 256 342
0 0 0 0 0 0 0 0 0 0 0 0 0 0 0 0 0 0 0 0 0 0 0 0 0 0 0 0 0 0 0 0 0 0 0 0 0 0 66 251 366 461 265 256 344
0 0 0 0 0 0 0 0 0 0 0 0 0 0 0 0 0 0 0 0 0 0 0 0 0 0 0 0 0 0 0 0 3 0 0 0 0 0 7 431 546 472 228 276 299
0 0 0 0 0 0 0 0 0 0 0 0 0 0 0 0 0 0 0 0 0 0 0 0 0 0 0 0 0 0 0 0 1 0 0 0 0 0 99 601 620 354 282 460 541
CIN
-0 -0 -0 -0 -0 -0 -0 -0 -0 -0 -0 -0 -0 -0 -0 -0 -0 -0 -0 -0 -0 -0 -0 -0 -0 -0 -0 -0 -146 -23 -0 -0 -0 -56 -76 -78 -81 -0 -67 -54 -67 -101 -91 -0 -174
-0 -0 -0 -0 -0 -0 -0 -0 -0 -0 -0 -0 -0 -0 -0 -0 -0 -0 -0 -0 -0 -0 -0 -0 -0 -0 -0 -0 -0 -0 -47 -37 -20 -67 -73 -36 -59 -75 -45 -58 -63 -44 -160 -98 -158
-0 -0 -0 -0 -0 -0 -0 -0 -0 -0 -0 -0 -0 -0 -0 -0 -0 -0 -0 -0 -0 -0 -0 -0 -0 -0 -0 -0 -0 -104 -61 -47 -82 -74 -67 -58 -62 -81 -53 -0 -63 -0 -0 -87 -145
-0 -0 -0 -0 -0 -0 -0 -0 -0 -0 -0 -0 -0 -0 -0 -0 -0 -0 -0 -0 -0 -0 -0 -0 -0 -0 -0 -64 -64 -41 -29 -46 -48 -139 -59 -39 -57 -72 -71 -43 -54 -11 -15 -143 -128
-0 -0 -0 -0 -0 -0 -0 -0 -0 -0 -0 -0 -0 -0 -0 -0 -0 -0 -0 -0 -0 -0 -0 -0 -0 -0 -0 -84 -60 -41 -41 -59 -58 -106 -48 -64 -61 -73 -69 -63 -89 -109 -130 -126 -124
-0 -0 -0 -0 -0 -0 -0 -0 -0 -0 -0 -0 -0 -0 -0 -0 -0 -0 -0 -0 -0 -0 -0 -0 -0 -0 -0 -134 -61 -70 -79 -71 -67 -55 -91 -32 -56 -37 -71 -80 -90 -107 -39 -121 -129
-0 -0 -0 -0 -0 -0 -0 -0 -0 -0 -0 -0 -0 -0 -0 -0 -0 -0 -0 -0 -0 -0 -0 -0 -0 -0 -8 -80 -164 -138 -91 -100 -68 -82 -88 -47 -55 -71 -67 -72 -71 -100 -0 -106 -116
-0 -0 -0 -0 -0 -0 -0 -0 -0 -0 -0 -0 -0 -0 -0 -0 -0 -0 -0 -0 -0 -0 -0 -0 -0 -0 -172 -183 -147 -0 -108 -88 -100 -70 -99 -44 -44 -94 -99 -61 -72 -83 -97 -100 -89
-0 -0 -0 -0 -0 -0 -0 -0 -0 -0 -0 -0 -0 -0 -0 -0 -0 -0 -0 -0 -0 -0 -0 -0 -0 -0 -207 -137 -21 -0 -0 -83 -103 -100 -116 -0 -0 -69 -95 -99 -68 -70 -91 -91 -77
-0 -0 -0 -0 -0 -0 -0 -0 -0 -0 -0 -0 -0 -0 -0 -0 -0 -0 -0 -0 -0 -0 -0 -0 -0 -0 -0 -27 -0 -0 -0 -32 -100 -120 -121 -105 -18 -0 -78 -71 -57 -82 -80 -74 -80
-0 -0 -0 -0 -0 -0 -0 -0 -0 -0 -0 -0 -0 -0 -0 -0 -0 -0 -0 -0 -0 -0 -0 -0 -0 -0 -0 -0 -0 -0 -0 -0 -85 -119 -129 -106 -113 -0 -0 -143 -131 -137 -122 -103 -73
-0 -0 -0 -0 -0 -0 -0 -0 -0 -0 -0 -0 -0 -0 -0 -0 -0 -0 -0 -0 -0 -0 -0 -0 -0 -0 -0 -0 -0 -0 -0 -38 -27 -133 -114 -105 -102 -124 -38 -0 -0 -0 -125 -0 -101
-0 -0 -0 -0 -0 -0 -0 -0 -0 -0 -0 -0 -0 -0 -0 -0 -0 -0 -0 -0 -0 -0 -0 -0 -0 -0 -0 -0 -0 -0 -0 -0 -69 -84 -126 -91 -96 -105 -225 -0 -0 -0 -0 -125 -120
-0 -0 -0 -0 -0 -0 -0 -0 -0 -0 -0 -0 -0 -0 -0 -0 -0 -0 -0 -0 -0 -0 -0 -0 -0 -0 -0 -0 -0 -0 -0 -0 -100 -82 -0 -119 -68 -0 -78 -250 -0 -0 -0 -0 -184
-0 -0 -0 -0 -0 -0 -0 -0 -0 -0 -0 -0 -0 -0 -0 -0 -0 -0 -0 -0 -0 -0 -0 -0 -0 -0 -0 -0 -0 -0 -0 -0 -107 -6 -0 -101 -19 -0 -0 -0 -0 -20 -0 -0 -0
-0 -0 -0 -0 -0 -0 -0 -0 -0 -0 -0 -0 -0 -0 -0 -0 -0 -0 -0 -0 -0 -0 -0 -0 -0 -0 -0 -0 -0 -0 -51 -163 -166 -102 -0 -0 -23 -0 -0 -0 -0 -0 -0 -0 -191
-0 -0 -0 -0 -0 -0 -0 -0 -0 -0 -0 -0 -0 -0 -0 -0 -0 -0 -0 -0 -0 -0 -0 -0 -0 -0 -0 -0 -0 -0 -0 -0 -20 -19 -0 -41 -103 -0 -0 -0 -0 -0 -0 -0 -0
-0 -0 -0 -0 -0 -0 -0 -0 -0 -0 -0 -0 -0 -0 -0 -0 -0 -0 -0 -0 -0 -0 -0 -0 -0 -0 -0 -0 -0 -0 -0 -0 -0 -0 -0 -0 -2 -0 -0 -217 -0 -0 -0 -0 -0
-0 -0 -0 -0 -0 -0 -0 -0 -0 -0 -0 -0 -0 -0 -0 -0 -0 -0 -0 -0 -0 -0 -0 -0 -0 -0 -0 -0 -0 -0 -0 -0 -0 -0 -0 -0 -0 -0 -202 -149 -174 -0 -19 -0 -0
-0 -0 -0 -0 -0 -0 -0 -0 -0 -0 -0 -0 -0 -0 -0 -0 -0 -0 -0 -0 -0 -0 -0 -0 -0 -0 -0 -0 -0 -0 -0 -0 -0 -0 -0 -0 -0 -0 -21 -106 -122 -128 -157 -134 -19
-0 -0 -0 -0 -0 -0 -0 -0 -0 -0 -0 -0 -0 -0 -0 -0 -0 -0 -0 -0 -0 -0 -0 -0 -0 -0 -0 -0 -0 -0 -0 -0 -8 -0 -0 -0 -0 -0 -27 -106 -82 -84 -123 -161 -227
-0 -0 -0 -0 -0 -0 -0 -0 -0 -0 -0 -0 -0 -0 -0 -0 -0 -0 -0 -0 -0 -0 -0 -0 -0 -0 -0 -0 -0 -0 -0 -0 -0 -0 -0 -0 -0 -154 -240 -208 -0 -97 -114 -178 -186
-0 -0 -0 -0 -0 -0 -0 -0 -0 -0 -0 -0 -0 -0 -0 -0 -0 -0 -0 -0 -0 -0 -0 -0 -0 -0 -0 -0 -0 -0 -0 -0 -0 -0 -0 -0 -0 -0 -227 -177 -73 -108 -117 -182 -191
-0 -0 -0 -0 -0 -0 -0 -0 -0 -0 -0 -0 -0 -0 -0 -0 -0 -0 -0 -0 -0 -0 -0 -0 -0 -0 -0 -0 -0 -0 -0 -0 -0 -0 -0 -0 -0 -57 -83 -98 -145 -87 -160 -191 -208
-0 -0 -0 -0 -0 -0 -0 -0 -0 -0 -0 -0 -0 -0 -0 -0 -0 -0 -0 -0 -0 -0 -0 -0 -0 -0 -0 -0 -0 -0 -0 -0 -0 -0 -0 -0 -0 -0 -83 -85 -108 -150 -166 -169 -178
-0 -0 -0 -0 -0 -0 -0 -0 -0 -0 -0 -0 -0 -0 -0 -0 -0 -0 -0 -0 -0 -0 -0 -0 -0 -0 -0 -0 -0 -0 -0 -0 -84 -0 -0 -0 -0 -0 -48 -194 -163 -167 -170 -164 -172
-0 -0 -0 -0 -0 -0 -0 -0 -0 -0 -0 -0 -0 -0 -0 -0 -0 -0 -0 -0 -0 -0 -0 -0 -0 -0 -0 -0 -0 -0 -0 -0 -47 -0 -0 -0 -0 -0 -136 -109 -143 -164 -157 -118 -119
Wind_Speed
14 13 12 12 12 13 13 12 13 14 15 18 19 19 19 19 18 10 17 13 14 15 14 15 15 14 15 15 16 16 18 21 20 17 11 7 10 9 10 14 15 14 17 19 18
13 13 12 12 12 12 12 12 13 13 14 16 18 19 19 18 17 17 15 13 12 13 13 14 14 14 16 15 15 16 18 21 20 14 14 12 7 9 8 12 13 17 19 20 19
14 14 13 13 13 13 13 13 13 13 14 16 17 18 18 17 14 15 10 15 13 12 13 14 14 15 15 15 15 16 19 21 21 12 11 11 11 11 8 13 14 17 20 21 21
14 15 15 15 15 15 15 14 13 13 14 15 16 17 18 17 13 14 12 14 13 13 12 14 15 17 16 15 16 16 19 16 17 13 10 13 8 8 13 3 15 18 20 22 22
16 16 17 18 17 17 17 16 15 14 14 16 16 16 16 13 15 15 13 15 13 12 12 13 15 14 16 17 16 15 17 20 18 14 9 8 9 11 9 11 12 16 19 21 22
19 19 18 19 19 19 19 18 17 16 16 15 15 15 14 11 15 15 15 15 12 11 11 13 14 14 16 18 14 15 18 19 18 14 11 7 12 12 11 7 9 14 19 20 21
21 21 22 21 21 21 21 21 20 18 17 12 13 13 11 16 14 14 15 13 12 11 10 13 13 14 15 17 14 14 18 19 17 15 11 10 18 13 11 5 8 12 18 20 20
22 22 23 23 24 24 23 23 21 18 14 12 12 13 10 12 12 14 13 11 11 11 10 12 13 14 14 14 15 16 16 18 15 16 14 13 18 7 20 2 10 12 19 22 21
25 25 25 25 25 26 25 23 17 15 13 12 13 13 11 11 12 15 13 12 12 11 10 11 11 11 13 13 15 17 18 17 14 12 15 11 15 14 23 15 4 10 16 22 21
27 27 27 27 27 27 25 18 13 14 13 14 13 14 10 9 8 8 11 11 11 10 8 7 8 8 10 10 15 18 19 17 15 12 13 12 17 14 19 20 16 3 20 22 21
29 29 28 29 29 26 17 14 17 17 15 10 11 12 12 12 11 8 8 10 8 8 5 6 5 10 6 7 11 18 19 15 18 12 12 11 13 15 15 18 29 29 27 26 21
31 31 30 30 29 20 15 16 15 17 25 6 10 5 8 13 14 10 8 6 6 4 6 7 6 3 7 7 7 18 20 17 17 16 9 14 17 14 13 17 21 28 30 21 17
34 34 33 32 27 17 20 14 17 20 21 23 12 9 5 3 6 5 7 5 4 3 3 3 6 5 2 6 10 15 11 16 17 13 18 21 22 20 13 12 18 24 27 27 22
33 34 33 33 19 23 17 16 26 14 22 18 16 15 4 5 9 2 5 4 7 3 3 2 10 12 8 4 5 17 4 5 12 16 22 19 24 24 19 20 18 18 24 16 24
34 34 33 27 25 18 16 24 19 16 22 17 14 10 3 2 10 3 2 4 3 3 3 3 3 5 5 4 4 9 19 9 13 18 24 22 22 25 22 23 17 19 20 22 24
33 33 32 19 17 16 23 24 13 19 19 17 12 9 4 7 11 8 4 5 9 3 5 3 7 5 4 9 3 14 14 14 14 17 22 22 18 25 22 18 22 7 18 23 24
33 33 24 16 13 17 23 14 14 15 19 17 14 10 5 5 9 7 2 2 5 8 5 6 4 8 7 13 10 7 10 16 17 15 19 19 16 25 24 24 24 9 13 19 19
36 33 17 11 16 18 13 10 13 16 16 19 19 15 5 7 8 6 5 3 3 9 12 5 12 4 3 3 11 4 2 9 13 12 17 15 19 22 20 21 18 17 8 1 10
34 22 19 18 8 10 9 12 14 15 17 20 20 14 11 10 10 8 9 5 4 5 9 11 12 11 6 8 8 9 6 11 13 16 20 19 24 26 18 16 15 15 13 7 4
27 20 23 19 9 9 12 15 16 16 20 17 17 15 16 15 14 10 10 13 9 7 5 12 14 6 9 8 14 7 3 13 14 14 15 20 23 23 21 13 13 14 12 10 2
21 18 22 14 15 13 14 14 18 18 22 19 17 20 17 19 19 18 14 16 10 6 5 10 12 10 12 11 11 12 13 15 11 12 12 19 22 19 19 8 11 16 12 12 13
21 18 16 19 16 15 16 17 19 22 22 21 20 20 22 21 24 23 21 15 12 4 4 9 14 22 7 19 17 18 11 7 7 10 16 20 24 20 18 10 18 17 13 14 19
20 17 17 17 17 18 18 19 19 21 22 21 21 21 23 23 25 24 29 25 14 10 9 8 14 24 34 20 13 13 15 13 11 12 14 23 25 20 19 16 9 17 13 16 20
20 18 18 18 17 18 21 20 22 21 19 21 20 21 25 23 23 25 26 23 17 15 15 8 15 15 16 20 13 16 11 10 14 16 13 28 26 22 19 15 11 16 12 15 20
23 20 18 19 18 21 20 21 23 24 22 23 20 24 24 25 26 25 29 33 33 22 18 13 22 17 28 27 19 19 7 7 13 12 16 24 20 26 23 8 6 12 6 13 18
22 22 21 20 20 22 22 21 24 24 23 23 25 29 26 25 24 28 29 27 30 26 23 17 25 20 27 30 21 19 9 7 12 14 19 21 27 26 19 14 7 6 4 8 21
22 20 20 22 22 22 23 25 25 27 24 22 29 30 28 28 31 35 33 34 35 32 29 26 19 22 27 23 21 27 13 10 11 14 17 22 28 4 16 9 1 6 7 5 9
Wind_Direction
299 290 282 281 280 280 277 271 258 241 227 222 224 229 238 247 236 84 150 85 96 80 45 57 59 90 43 55 21 343 326 323 324 352 355 4 316 303 36 64 57 94 119 111 88
297 290 283 280 278 275 271 266 260 243 224 213 211 212 219 236 179 168 134 99 65 80 73 86 81 46 13 37 55 29 344 327 311 352 38 73 340 314 343 64 40 65 65 84 92
297 293 288 283 280 277 276 268 263 247 223 207 199 199 199 198 120 125 52 128 109 93 67 90 82 30 33 38 49 36 358 318 322 13 53 57 276 279 29 99 90 97 102 106 107
294 295 289 283 281 281 277 271 265 250 223 199 185 183 182 134 78 106 80 113 104 102 75 81 42 12 19 29 2 20 9 54 51 55 43 77 343 326 117 309 96 111 107 111 117
294 290 288 288 285 284 279 273 268 250 227 192 165 155 130 97 124 112 57 103 96 95 91 79 19 27 17 11 21 31 29 5 35 39 10 30 340 298 120 73 70 97 113 116 125
299 296 291 288 287 285 283 279 272 254 230 172 126 111 87 95 121 96 79 100 99 95 97 88 36 32 13 357 6 11 25 30 28 44 29 339 291 287 293 13 73 105 129 125 131
299 299 297 294 292 288 287 283 278 263 255 71 75 48 67 137 111 109 95 97 109 107 80 102 58 37 26 14 22 13 5 30 47 33 8 343 288 297 309 48 81 111 137 138 146
299 298 298 298 297 296 293 288 285 311 8 30 42 15 78 94 71 108 112 80 105 111 96 77 34 29 14 29 352 351 353 342 43 66 71 328 289 81 151 166 122 125 146 154 163
304 303 301 300 297 296 293 292 326 348 11 36 8 6 17 336 102 122 110 92 92 111 101 77 39 21 18 15 355 345 340 356 26 81 66 31 325 130 164 268 106 129 145 166 170
307 306 305 303 298 296 292 323 11 4 357 346 343 344 360 53 46 82 115 97 78 95 86 71 23 9 13 12 340 341 334 344 2 98 97 104 180 324 166 173 274 312 159 174 172
306 304 303 301 300 294 337 350 326 325 328 347 354 338 324 346 355 37 84 98 81 61 79 25 8 161 115 81 7 333 329 343 337 16 96 121 153 162 151 174 231 229 187 193 177
306 306 303 302 303 323 353 328 344 336 309 336 194 313 314 322 333 7 76 80 73 79 44 358 165 113 32 75 40 324 309 314 322 329 32 350 201 177 155 172 185 199 199 182 172
310 308 306 304 303 337 316 337 334 334 325 309 327 314 306 336 338 13 94 64 71 62 98 134 43 18 80 1 353 329 334 321 318 349 302 293 268 217 167 163 175 188 195 197 178
306 308 310 305 327 318 320 334 311 344 317 322 322 324 324 350 327 17 86 73 4 124 29 340 174 167 332 358 23 235 79 268 326 320 299 315 299 281 239 199 184 179 187 175 176
305 306 307 313 306 326 325 311 324 332 307 322 331 350 1 44 352 339 17 343 26 13 359 45 57 150 323 146 47 179 324 347 319 309 302 305 307 273 298 252 189 186 183 179 176
299 301 307 334 327 326 301 303 335 313 304 316 329 325 321 304 341 338 333 330 338 359 335 161 345 343 330 338 32 341 348 340 325 314 300 307 308 273 294 315 314 153 180 181 179
296 294 330 340 339 321 304 322 324 313 314 314 318 322 296 301 316 335 331 181 332 321 307 303 278 306 313 307 338 354 341 315 307 313 309 321 321 288 297 297 271 331 167 176 175
300 303 346 351 329 311 327 327 317 324 313 314 312 308 284 305 294 320 335 203 243 319 328 306 289 264 307 294 315 2 13 325 321 328 322 330 310 313 309 305 312 333 45 195 173
313 348 352 342 0 338 331 310 316 314 318 311 308 311 296 301 309 297 294 245 244 190 313 327 304 297 279 306 322 316 312 311 321 320 310 313 301 284 309 315 338 350 31 90 188
341 344 342 343 31 343 318 308 310 315 315 318 309 315 303 298 299 297 295 310 288 212 230 311 306 328 305 306 299 306 336 308 315 318 315 308 306 305 303 302 333 354 49 82 49
359 359 344 9 345 334 316 312 310 313 313 308 303 298 299 295 291 293 296 298 306 312 234 272 291 308 313 308 299 289 282 292 317 323 334 313 300 305 316 12 344 254 81 83 114
3 355 360 350 341 334 324 321 318 312 313 304 299 293 288 290 285 282 277 291 331 319 249 256 288 277 267 293 304 283 276 286 304 316 307 294 278 285 301 333 283 197 49 103 139
9 9 359 354 339 333 330 325 322 315 313 311 302 301 295 285 284 277 273 276 290 301 307 275 277 274 262 286 310 296 289 286 298 316 306 278 264 297 299 294 8 162 44 93 127
12 4 360 356 350 336 327 323 316 316 314 314 306 305 299 290 280 279 275 278 280 286 299 286 281 272 265 266 290 287 294 286 285 294 307 257 273 281 290 288 84 121 63 61 122
9 3 2 346 341 335 330 322 315 309 309 311 304 305 301 290 288 278 274 270 267 280 288 284 274 276 271 270 270 278 284 274 285 291 289 268 277 253 267 338 52 103 34 89 117
7 1 355 347 341 332 328 323 315 312 309 304 299 296 296 291 289 283 281 273 268 274 275 279 276 274 277 268 270 269 249 255 281 283 283 281 251 254 274 285 319 72 25 81 158
14 10 359 346 338 333 325 318 314 316 307 299 299 293 289 287 287 279 280 270 265 268 266 269 276 274 270 283 269 264 239 228 274 283 285 277 258 339 277 282 135 113 112 70 109